Wind_Speed
31 30 28 34 37 36 33 22 20 19 19 20 20 22 24 22 21 20 22 21 21 24
33 32 34 38 36 36 34 27 18 19 20 22 23 26 26 27 28 27 27 27 27 27
27 32 34 35 34 36 35 27 25 20 17 16 18 24 28 31 31 32 31 31 31 31
27 26 31 30 33 32 36 31 28 23 20 18 18 20 24 29 29 32 33 33 34 34
34 32 29 31 38 36 33 38 30 26 22 23 25 24 24 27 27 29 29 30 33 33
33 32 34 32 33 35 31 36 34 25 22 25 27 27 28 30 29 30 31 30 31 29
34 34 33 34 33 35 31 34 34 27 21 25 27 29 28 27 30 30 32 34 35 34
35 34 35 34 33 34 31 35 34 31 23 26 28 28 26 29 30 30 32 34 35 35
35 34 33 33 32 33 31 35 38 25 26 26 28 26 28 27 27 31 32 29 30 31
34 33 33 31 31 32 32 34 36 27 25 27 27 27 26 26 29 29 29 27 26 28
33 32 31 30 29 31 33 33 31 27 25 25 26 24 23 23 24 22 25 27 28 29
32 32 32 30 29 33 33 33 27 25 25 24 21 22 20 19 21 23 26 27 28 32
33 32 32 31 32 35 33 30 26 27 24 23 19 22 19 19 20 21 24 27 29 32
32 31 32 34 34 33 31 26 28 21 19 16 19 21 19 17 17 18 18 17 15 18
Wind_Direction
335 334 319 328 318 311 306 286 267 260 258 252 249 250 249 252 255 259 257 260 262 260
332 327 323 318 317 312 302 301 276 263 256 254 255 253 253 249 254 256 257 259 263 262
319 322 319 311 308 307 307 308 285 270 261 253 255 254 249 247 250 252 254 256 260 260
311 309 310 306 301 305 310 311 303 273 266 264 260 263 256 247 242 244 246 249 254 255
311 307 305 311 310 313 314 308 304 282 268 273 269 259 253 250 245 242 240 239 241 245
306 306 304 305 312 305 312 305 302 287 277 266 259 255 254 253 248 244 243 238 236 238
303 302 302 299 305 302 296 305 304 288 279 272 262 253 250 249 246 245 241 238 240 236
300 299 300 299 301 305 307 303 299 285 277 272 263 253 249 247 247 247 241 238 240 237
297 296 296 295 298 300 306 301 284 285 273 268 264 247 251 247 245 240 235 231 230 235
294 292 294 292 296 305 300 291 284 284 270 264 266 252 257 256 245 234 233 234 239 245
291 290 292 289 293 298 290 279 275 279 268 269 266 256 256 239 225 235 241 243 244 245
290 289 290 288 292 289 282 275 276 278 272 273 275 250 217 220 228 236 248 255 256 256
288 286 285 285 287 284 278 277 282 280 275 278 266 224 219 223 236 251 260 266 266 262
285 284 282 284 286 284 282 279 277 269 278 272 241 224 225 230 246 252 261 260 262 263
Height
809 803 805 796 794 785 778 773 770 769 769 770 772 774 776 778 779 781 783 784 785 785
807 804 796 795 790 782 775 768 765 764 763 763 765 766 769 771 773 775 777 778 780 780
808 801 797 792 785 779 770 760 759 758 756 755 757 760 762 763 765 768 769 771 773 774
802 797 793 787 780 769 759 753 752 753 750 749 749 752 754 755 757 759 761 762 765 765
793 790 785 774 765 757 753 751 747 745 743 742 741 745 747 748 749 751 753 755 757 757
787 782 774 769 764 759 747 746 741 739 736 736 736 737 738 739 741 742 744 747 748 749
782 776 770 764 759 754 749 738 734 733 729 732 730 730 729 730 732 733 735 737 739 741
775 770 763 756 749 742 733 732 726 727 724 725 725 721 721 721 724 725 727 728 730 731
769 762 757 751 742 741 727 726 728 717 717 716 715 711 713 713 714 717 718 719 721 724
761 755 749 744 737 725 724 723 717 711 710 709 704 703 702 704 706 708 710 712 713 716
753 747 742 736 729 722 722 719 713 705 703 699 696 693 694 695 699 701 704 705 706 706
746 738 733 727 721 718 715 712 702 695 695 691 686 685 687 692 695 696 697 698 697 697
736 729 723 718 715 710 706 697 689 686 684 680 679 679 684 687 689 690 690 689 687 685
726 721 715 708 703 697 692 687 683 678 674 672 672 675 679 681 683 683 683 681 677 673